Track STARLINK-1336 now! 10-day predictions STARLINK-1336 is classified as:
1 45557U 20025AC 21105.73984657 .00000634 00000-0 61446-4 0 9991 2 45557 53.0595 197.5120 0001538 116.8693 243.2453 15.06395944 55730